TB1YZC-13 Weather Reports


time (UTC)temp
F
wind
direction
speed
knots
gust
knots
rain 1hr
in
rain 24hr
in
rain mn
in
humidity
%
barometer
mb
20260906074240 85 0.0 0.0 0.00 0.00 0.00 38 1018.6
20260906073237 85 0.0 0.0 0.00 0.00 0.00 39 1018.7
20260906072233 84 0.0 0.0 0.00 0.00 0.00 40 1018.7
20260906071230 83 0.0 0.0 0.00 0.00 0.00 41 1018.5
20260906070226 83 0.0 0.0 0.00 0.00 0.00 41 1018.4
20260906065223 83 0.0 0.0 0.00 0.00 0.00 40 1018.3
20260906064220 82 0.0 0.0 0.00 0.00 0.00 40 1018.3
20260906063217 82 0.0 0.0 0.00 0.00 0.00 40 1018.1
20260906062213 81 0.0 0.0 0.00 0.00 0.00 41 1018.1
20260906061210 81 0.0 0.0 0.00 0.00 0.00 42 1018.2
20260906060207 80 0.0 0.0 0.00 0.00 0.00 44 1018.1
20260906055204 78 0.0 0.0 0.00 0.00 0.00 47 1018.1
20260906054201 78 0.0 0.0 0.00 0.00 0.00 47 1018.0
20260906053157 77 0.0 0.0 0.00 0.00 0.00 48 1018.2
20260906052154 76 0.0 0.0 0.00 0.00 0.00 50 1018.3
20260906051151 75 0.0 0.0 0.00 0.00 0.00 61 1018.4
20260906050148 73 0.0 0.0 0.00 0.00 0.00 63 1018.4
20260906045144 70 0.0 0.0 0.00 0.00 0.00 66 1018.3
20260906044141 69 0.0 0.0 0.00 0.00 0.00 68 1018.3
20260906043138 69 0.0 0.0 0.00 0.00 0.00 70 1018.3
20260906042135 68 0.0 0.0 0.00 0.00 0.00 70 1018.2
20260906041132 66 0.0 0.0 0.00 0.00 0.00 74 1018.2
20260906040129 66 0.0 0.0 0.00 0.00 0.00 76 1018.1
20260906035126 65 0.0 0.0 0.00 0.00 0.00 76 1018.1
20260906034123 65 0.0 0.0 0.00 0.00 0.00 77 1018.0
20260906033119 65 0.0 0.0 0.00 0.00 0.00 77 1018.0
20260906032116 65 0.0 0.0 0.00 0.00 0.00 76 1017.9
20260906031113 65 0.0 0.0 0.00 0.00 0.00 76 1017.8
20260906030110 65 0.0 0.0 0.00 0.00 0.00 76 1017.7
20260906025107 65 0.0 0.0 0.00 0.00 0.00 77 1017.7
20260906024104 65 0.0 0.0 0.00 0.00 0.00 77 1017.7
20260906023101 65 0.0 0.0 0.00 0.00 0.00 76 1017.8
20260906022057 65 0.0 0.0 0.00 0.00 0.00 76 1017.8
20260906021054 66 0.0 0.0 0.00 0.00 0.00 76 1017.9
20260906020051 66 0.0 0.0 0.00 0.00 0.00 75 1017.8
20260906015048 65 0.0 0.0 0.00 0.00 0.00 77 1017.8
20260906014045 66 0.0 0.0 0.00 0.00 0.00 76 1017.8
20260906013042 66 0.0 0.0 0.00 0.00 0.00 75 1017.8
20260906012039 66 0.0 0.0 0.00 0.00 0.00 77 1017.8
20260906011035 67 0.0 0.0 0.00 0.00 0.00 76 1017.9
20260906010032 67 0.0 0.0 0.00 0.00 0.00 77 1017.7
20260906005029 67 0.0 0.0 0.00 0.00 0.00 77 1017.8
20260906004026 67 0.0 0.0 0.00 0.00 0.00 77 1017.7
20260906003023 67 0.0 0.0 0.00 0.00 0.00 75 1017.9
20260906002020 69 0.0 0.0 0.00 0.00 0.00 74 1017.9
20260906001016 69 0.0 0.0 0.00 0.00 0.00 73 1017.9
20260906000014 68 0.0 0.0 0.00 0.00 0.00 74 1017.8
20260905235010 68 0.0 0.0 0.00 0.00 0.00 74 1017.8
20260905234007 69 0.0 0.0 0.00 0.00 0.00 75 1017.7
20260905233004 69 0.0 0.0 0.00 0.00 0.00 75 1017.8
20260905232001 69 0.0 0.0 0.00 0.00 0.00 75 1017.7
20260905230957 69 0.0 0.0 0.00 0.00 0.00 75 1017.7
20260905225954 70 0.0 0.0 0.00 0.00 0.00 74 1017.7
20260905224951 70 0.0 0.0 0.00 0.00 0.00 73 1017.7
20260905223948 71 0.0 0.0 0.00 0.00 0.00 73 1017.7
20260905222945 70 0.0 0.0 0.00 0.00 0.00 75 1017.9
20260905221942 70 0.0 0.0 0.00 0.00 0.00 75 1017.9
20260905220939 70 0.0 0.0 0.00 0.00 0.00 75 1017.9
20260905215936 70 0.0 0.0 0.00 0.00 0.00 74 1017.9
20260905214932 69 0.0 0.0 0.00 0.00 0.00 74 1018.0
20260905213929 70 0.0 0.0 0.00 0.00 0.00 73 1018.1
20260905212926 70 0.0 0.0 0.00 0.00 0.00 72 1018.0
20260905211922 70 0.0 0.0 0.00 0.00 0.00 72 1018.2
20260905210919 70 0.0 0.0 0.00 0.00 0.00 70 1018.2
20260905205917 71 0.0 0.0 0.00 0.00 0.00 69 1018.1
20260905204913 72 0.0 0.0 0.00 0.00 0.00 69 1018.3
20260905203910 72 0.0 0.0 0.00 0.00 0.00 68 1018.2
20260905202907 72 0.0 0.0 0.00 0.00 0.00 67 1018.3
20260905201903 73 0.0 0.0 0.00 0.00 0.00 66 1018.1
20260905200900 74 0.0 0.0 0.00 0.00 0.00 65 1018.0
20260905195858 75 0.0 0.0 0.00 0.00 0.00 63 1018.0
20260905194854 75 0.0 0.0 0.00 0.00 0.00 62 1018.1
20260905193851 75 0.0 0.0 0.00 0.00 0.00 62 1018.1
20260905192847 75 0.0 0.0 0.00 0.00 0.00 62 1018.0
20260905191844 75 0.0 0.0 0.00 0.00 0.00 60 1018.0
20260905190841 75 0.0 0.0 0.00 0.00 0.00 60 1018.1
20260905184835 73 0.0 0.0 0.00 0.00 0.00 64 1018.0
20260905183831 74 0.0 0.0 0.00 0.00 0.00 64 1018.0
20260905182828 74 0.0 0.0 0.00 0.00 0.00 62 1018.0
20260905181825 75 0.0 0.0 0.00 0.00 0.00 60 1018.0
20260905180822 75 0.0 0.0 0.00 0.00 0.00 59 1017.9
20260905175820 75 0.0 0.0 0.00 0.00 0.00 58 1017.9
20260905174816 75 0.0 0.0 0.00 0.00 0.00 56 1017.9
20260905173813 76 0.0 0.0 0.00 0.00 0.00 53 1017.9
20260905172809 76 0.0 0.0 0.00 0.00 0.00 53 1017.7
20260905171806 77 0.0 0.0 0.00 0.00 0.00 52 1017.7
20260905170803 77 0.0 0.0 0.00 0.00 0.00 51 1017.7
20260905165800 78 0.0 0.0 0.00 0.00 0.00 48 1017.5
20260905164757 78 0.0 0.0 0.00 0.00 0.00 49 1017.5
20260905163754 79 0.0 0.0 0.00 0.00 0.00 46 1017.4
20260905162751 80 0.0 0.0 0.00 0.00 0.00 43 1017.3
20260905161747 80 0.0 0.0 0.00 0.00 0.00 40 1017.3
20260905160744 81 0.0 0.0 0.00 0.00 0.00 40 1017.2
20260905155741 81 0.0 0.0 0.00 0.00 0.00 40 1017.2
20260905154738 82 0.0 0.0 0.00 0.00 0.00 40 1017.1
20260905153735 82 0.0 0.0 0.00 0.00 0.00 39 1017.0
20260905152731 83 0.0 0.0 0.00 0.00 0.00 38 1017.1
20260905151729 83 0.0 0.0 0.00 0.00 0.00 37 1017.0
20260905150725 83 0.0 0.0 0.00 0.00 0.00 37 1017.1
20260905145722 84 0.0 0.0 0.00 0.00 0.00 35 1017.1
20260905144719 85 0.0 0.0 0.00 0.00 0.00 34 1017.1
20260905143716 85 0.0 0.0 0.00 0.00 0.00 33 1017.1
20260905142712 85 0.0 0.0 0.00 0.00 0.00 32 1017.0
20260905141709 86 0.0 0.0 0.00 0.00 0.00 32 1017.1
20260905140706 89 0.0 0.0 0.00 0.00 0.00 30 1017.0
20260905135703 90 0.0 0.0 0.00 0.00 0.00 29 1017.1
20260905134700 90 0.0 0.0 0.00 0.00 0.00 28 1017.2
20260905133657 90 0.0 0.0 0.00 0.00 0.00 29 1017.2
20260905132653 89 0.0 0.0 0.00 0.00 0.00 29 1017.3
20260905131650 92 0.0 0.0 0.00 0.00 0.00 28 1017.3
20260905130647 90 0.0 0.0 0.00 0.00 0.00 29 1017.5
20260905125644 91 0.0 0.0 0.00 0.00 0.00 29 1017.5
20260905124640 92 0.0 0.0 0.00 0.00 0.00 29 1017.6
20260905123637 89 0.0 0.0 0.00 0.00 0.00 30 1017.8
20260905122635 89 0.0 0.0 0.00 0.00 0.00 30 1017.8
20260905121631 91 0.0 0.0 0.00 0.00 0.00 29 1017.8
20260905120628 89 0.0 0.0 0.00 0.00 0.00 30 1018.1
20260905115625 89 0.0 0.0 0.00 0.00 0.00 31 1018.2
20260905114622 88 0.0 0.0 0.00 0.00 0.00 31 1018.3
20260905113619 88 0.0 0.0 0.00 0.00 0.00 31 1018.3
20260905112618 88 0.0 0.0 0.00 0.00 0.00 31 1018.4
20260905111611 87 0.0 0.0 0.00 0.00 0.00 32 1018.5
20260905110608 87 0.0 0.0 0.00 0.00 0.00 32 1018.5
20260905105605 86 0.0 0.0 0.00 0.00 0.00 33 1018.7
20260905104602 86 0.0 0.0 0.00 0.00 0.00 33 1018.8
20260905103559 85 0.0 0.0 0.00 0.00 0.00 36 1018.8
20260905102556 85 0.0 0.0 0.00 0.00 0.00 37 1018.9
20260905101553 85 0.0 0.0 0.00 0.00 0.00 38 1018.9
20260905100549 85 0.0 0.0 0.00 0.00 0.00 38 1019.0
20260905095546 84 0.0 0.0 0.00 0.00 0.00 38 1019.0
20260905094543 84 0.0 0.0 0.00 0.00 0.00 39 1019.0
20260905093540 84 0.0 0.0 0.00 0.00 0.00 41 1019.0
20260905092537 84 0.0 0.0 0.00 0.00 0.00 41 1019.1
20260905091534 84 0.0 0.0 0.00 0.00 0.00 43 1019.2
20260905090531 84 0.0 0.0 0.00 0.00 0.00 42 1019.2
20260905085527 84 0.0 0.0 0.00 0.00 0.00 43 1019.3
20260905084524 83 0.0 0.0 0.00 0.00 0.00 46 1019.4
20260905083521 83 0.0 0.0 0.00 0.00 0.00 48 1019.6
20260905082518 83 0.0 0.0 0.00 0.00 0.00 46 1019.7
20260905081515 82 0.0 0.0 0.00 0.00 0.00 48 1019.8
20260905080513 82 0.0 0.0 0.00 0.00 0.00 47 1019.8
20260905075509 81 0.0 0.0 0.00 0.00 0.00 54 1020.0